Location: Demmingen
(48.6757°N, 10.4375°E)
Time: 09:51:38
(UTC+00:00)

USA 267 - Pass Details

Date: 17 August 2024
Orbit: 1096 x 1111 km, 123.1° (Epoch: 03 September)

Event Time Altitude Azimuth Distance (km) Brightness Sun altitude
Exits shadow 19:40:16 - 168° (SSE) 3,642 5.6 -11.2°
Reaches altitude 10° 19:42:25 10° 178° (S) 2,951 5.2 -11.5°
Maximum altitude 19:47:46 27° 233° (SW) 1,993 4.8 -12.2°
Drops below altitude 10° 19:53:09 10° 289° (WNW) 2,973 6.8 -12.9°
Sets 19:56:07 0° 301° (WNW) 3,937 8.1 -13.3°
